Weather in Oysky

Russia / Krasnoyarsk Krai     53°14′39″N   92°29′49″E
temp.,
°C
wind,
m/s
gust,
m/s
humid.,
%
clouds,
%
prec.,
mm/h
press.,
hPa
HPBL,
m
19 may, wed
wed1901:00+8sw11958 1.4 100710
04:00+8ese1196100 0.0 100610
07:00+10e2495100 0.1 1003142
10:00+10s0197100 4.4 1001150
13:00+14ssw41081100 6.1 998785
16:00+9nw4995100 7.5 1001714
19:00+7w4795100 12.4 1006719
22:00+6wsw3596100 2.2 1007311
20 may, thu
thu2001:00+5wsw259697 2.4 1007156
04:00+5wsw3793100 0.0 1007258
07:00+5wsw3589100 0.3 1007671
10:00+6wnw1378100 0.3 1007860
13:00+9nnw3454100 0.6 10061633
16:00+10nnw3551100 0.1 10061698
19:00+8nnw4864100 0.3 1008764
22:00+5nw41165100 0.1 1010466
21 may, fri
fri2101:00+4w5969100 0.2 1013469
04:00+3w4868100 0.1 1015476
07:00+3w4867100 0.1 1018607
10:00+6wnw4652100 0.0 10201606
13:00+7wnw4745100 0.1 10211915
16:00+9wnw3647100 0.1 10201846
19:00+8wsw2360100 0.1 102286
22:00+5sw4979100 0.0 1024315
22 may, sat
sat2201:00+4sw398099 0.0 1025259
04:00+4sw378258 0.0 1026226
07:00+5ssw367896 0.1 1027375
10:00+9w346012 0.3 10261124
13:00+12w344567 1.1 10232134
16:00+13wnw243992 0.1 10222287
19:00+12wsw235697 0.1 1022124
22:00+6ssw228099 0.1 102319
23 may, sun
sun2301:00+4s118665 0.1 102410
04:00+3se118761 0.0 102410
07:00+7se017358 0.0 1024130
10:00+13wnw225377 0.0 1024810
13:00+15w344359 0.1 10222147
16:00+14wnw354895 0.0 10221727
19:00+13nw116252 0.0 102363
22:00+9sse117393 0.0 102410